| time (UTC) | temp C | wind direction | speed KPH | gust KPH | rain 1hr cm | rain 24hr cm | rain mn cm | humidity % | barometer mb |
| 20260502170105 | 17 | 82 | 3.2 | 14.5 | 0.00 | 0.00 | 0.00 | 36 | 1012.1 |
| 20260502164103 | 16 | 355 | 1.6 | 12.9 | 0.00 | 0.00 | 0.00 | 39 | 1012.5 |
| 20260502163603 | 15 | 60 | 4.8 | 9.7 | 0.00 | 0.00 | 0.00 | 38 | 1012.5 |
| 20260502163102 | 15 | 353 | 0.0 | 11.3 | 0.00 | 0.00 | 0.00 | 39 | 1012.4 |
| 20260502162603 | 15 | 21 | 0.0 | 11.3 | 0.00 | 0.00 | 0.00 | 39 | 1012.6 |
| 20260502162102 | 14 | 77 | 3.2 | 16.1 | 0.00 | 0.00 | 0.00 | 40 | 1012.7 |
| 20260502161600 | 14 | 79 | 3.2 | 16.1 | 0.00 | 0.00 | 0.00 | 39 | 1012.7 |
| 20260502161101 | 15 | 90 | 8.0 | 12.9 | 0.00 | 0.00 | 0.00 | 38 | 1012.6 |
| 20260502151531 | 12 | 180 | 1.6 | 17.7 | 0.00 | 0.00 | 0.00 | 42 | 1013.3 |
| 20260502150531 | 12 | 140 | 4.8 | 11.3 | 0.00 | 0.00 | 0.00 | 44 | 1013.4 |
| 20260502130530 | 5 | 34 | 3.2 | 6.4 | 0.00 | 0.00 | 0.00 | 62 | 1015.1 |
| 20260502123530 | 3 | 43 | 6.4 | 6.4 | 0.00 | 0.00 | 0.00 | 68 | 1015.6 |
| 20260502123031 | 2 | 15 | 0.0 | 4.8 | 0.00 | 0.00 | 0.00 | 70 | 1015.6 |
| 20260502122529 | 2 | 21 | 4.8 | 4.8 | 0.00 | 0.00 | 0.00 | 71 | 1015.7 |
| 20260502122016 | 1 | 23 | 0.0 | 4.8 | 0.00 | 0.00 | 0.00 | 74 | 1015.7 |
| 20260502121517 | 0 | 25 | 3.2 | 3.2 | 0.00 | 0.00 | 0.00 | 77 | 1015.7 |
| 20260502121017 | 0 | 0 | 0.0 | 3.2 | 0.00 | 0.00 | 0.00 | 80 | 1015.9 |
| 20260502120513 | 0 | 0 | 0.0 | 3.2 | 0.00 | 0.00 | 0.00 | 82 | 1015.8 |
| 20260502115511 | -1 | 20 | 0.0 | 3.2 | 0.00 | 0.00 | 0.00 | 83 | 1015.9 |
| 20260502115012 | -1 | 0 | 1.6 | 3.2 | 0.00 | 0.00 | 0.00 | 84 | 1016.1 |
| 20260502114510 | -1 | 34 | 3.2 | 3.2 | 0.00 | 0.00 | 0.00 | 85 | 1016.4 |
| 20260502114010 | -1 | 270 | 0.0 | 3.2 | 0.00 | 0.00 | 0.00 | 86 | 1016.2 |
| 20260502113009 | -2 | 7 | 1.6 | 3.2 | 0.00 | 0.00 | 0.00 | 87 | 1016.4 |
| 20260502112001 | -2 | 54 | 0.0 | 3.2 | 0.00 | 0.00 | 0.00 | 90 | 1016.7 |
| 20260502111500 | -2 | 57 | 1.6 | 3.2 | 0.00 | 0.00 | 0.00 | 90 | 1016.6 |
| 20260502111001 | -2 | 32 | 0.0 | 3.2 | 0.00 | 0.00 | 0.00 | 90 | 1016.6 |
| 20260502110000 | -2 | 0 | 0.0 | 3.2 | 0.00 | 0.00 | 0.00 | 90 | 1016.5 |
| 20260502105503 | -2 | 60 | 1.6 | 3.2 | 0.00 | 0.00 | 0.00 | 90 | 1016.7 |
| 20260502104444 | -2 | 20 | 0.0 | 3.2 | 0.00 | 0.00 | 0.00 | 89 | 1016.8 |
| 20260502103943 | -2 | 29 | 0.0 | 3.2 | 0.00 | 0.00 | 0.00 | 89 | 1016.9 |
| 20260502103444 | -2 | 12 | 1.6 | 3.2 | 0.00 | 0.00 | 0.00 | 90 | 1016.7 |
| 20260502102938 | -2 | 30 | 0.0 | 3.2 | 0.00 | 0.00 | 0.00 | 89 | 1016.7 |
| 20260502102430 | -2 | 33 | 0.0 | 3.2 | 0.00 | 0.00 | 0.00 | 89 | 1016.9 |
| 20260502101929 | -2 | 66 | 1.6 | 3.2 | 0.00 | 0.00 | 0.00 | 89 | 1017.0 |
| 20260502101431 | -2 | 23 | 1.6 | 3.2 | 0.00 | 0.00 | 0.00 | 88 | 1017.0 |
| 20260502100929 | -2 | 49 | 1.6 | 3.2 | 0.00 | 0.00 | 0.00 | 88 | 1017.2 |
| 20260502091429 | -2 | 35 | 0.0 | 3.2 | 0.00 | 0.00 | 0.00 | 86 | 1017.6 |
| 20260502090929 | -2 | 60 | 1.6 | 3.2 | 0.00 | 0.00 | 0.00 | 86 | 1017.6 |
| 20260502090429 | -2 | 23 | 1.6 | 3.2 | 0.00 | 0.00 | 0.00 | 86 | 1017.6 |
| 20260502071406 | -2 | 75 | 0.0 | 1.6 | 0.00 | 0.00 | 0.00 | 80 | 1018.1 |
| 20260502070904 | -2 | 66 | 1.6 | 3.2 | 0.00 | 0.00 | 0.00 | 79 | 1018.2 |
| 20260502070403 | -2 | 66 | 0.0 | 3.2 | 0.00 | 0.00 | 0.00 | 80 | 1018.2 |
| 20260502064902 | -2 | 26 | 0.0 | 3.2 | 0.00 | 0.00 | 0.00 | 77 | 1018.2 |
| 20260502064405 | -2 | 20 | 0.0 | 3.2 | 0.00 | 0.00 | 0.00 | 77 | 1018.2 |
| 20260502063907 | -2 | 23 | 0.0 | 3.2 | 0.00 | 0.00 | 0.00 | 77 | 1018.4 |
| 20260502063406 | -2 | 12 | 1.6 | 3.2 | 0.00 | 0.00 | 0.00 | 77 | 1018.3 |
| 20260502062902 | -2 | 32 | 3.2 | 3.2 | 0.00 | 0.00 | 0.00 | 78 | 1018.2 |
| 20260502062402 | -1 | 60 | 0.0 | 3.2 | 0.00 | 0.00 | 0.00 | 76 | 1018.4 |
| 20260502061900 | -2 | 77 | 1.6 | 3.2 | 0.00 | 0.00 | 0.00 | 76 | 1018.4 |
| 20260502061402 | -1 | 32 | 0.0 | 3.2 | 0.00 | 0.00 | 0.00 | 75 | 1018.3 |
| 20260502060901 | -1 | 14 | 1.6 | 3.2 | 0.00 | 0.00 | 0.00 | 74 | 1018.4 |
| 20260502060404 | -1 | 14 | 0.0 | 3.2 | 0.00 | 0.00 | 0.00 | 75 | 1018.2 |
| 20260502055901 | -1 | 18 | 1.6 | 3.2 | 0.00 | 0.00 | 0.00 | 76 | 1018.3 |
| 20260502055402 | -1 | 49 | 1.6 | 3.2 | 0.00 | 0.00 | 0.00 | 75 | 1018.6 |
| 20260502054902 | -1 | 90 | 0.0 | 3.2 | 0.00 | 0.00 | 0.00 | 74 | 1018.7 |
| 20260502054406 | -1 | 74 | 3.2 | 3.2 | 0.00 | 0.00 | 0.00 | 73 | 1018.7 |
| 20260502053902 | -1 | 270 | 0.0 | 0.0 | 0.00 | 0.00 | 0.00 | 75 | 1018.6 |
| 20260502053405 | -1 | 270 | 0.0 | 0.0 | 0.00 | 0.00 | 0.00 | 75 | 1018.6 |
| 20260502052902 | -1 | 270 | 0.0 | 0.0 | 0.00 | 0.00 | 0.00 | 74 | 1018.6 |
| 20260502052404 | -1 | 270 | 0.0 | 0.0 | 0.00 | 0.00 | 0.00 | 74 | 1018.7 |
| 20260502051405 | 0 | 270 | 0.0 | 1.6 | 0.00 | 0.00 | 0.00 | 72 | 1018.6 |
| 20260502050401 | 0 | 66 | 0.0 | 1.6 | 0.00 | 0.00 | 0.00 | 74 | 1018.9 |
| 20260502045901 | 0 | 66 | 0.0 | 3.2 | 0.00 | 0.00 | 0.00 | 75 | 1018.7 |
| 20260502045401 | 0 | 71 | 1.6 | 3.2 | 0.00 | 0.00 | 0.00 | 74 | 1018.6 |
| 20260502044902 | 0 | 77 | 1.6 | 3.2 | 0.00 | 0.00 | 0.00 | 73 | 1018.7 |
| 20260502044401 | 0 | 23 | 0.0 | 1.6 | 0.00 | 0.00 | 0.00 | 69 | 1018.9 |
| 20260502043904 | 0 | 23 | 0.0 | 1.6 | 0.00 | 0.00 | 0.00 | 70 | 1018.9 |
| 20260502043402 | 0 | 82 | 0.0 | 0.0 | 0.00 | 0.00 | 0.00 | 71 | 1018.6 |
| 20260502042904 | 0 | 82 | 0.0 | 1.6 | 0.00 | 0.00 | 0.00 | 71 | 1019.0 |
| 20260502041902 | 0 | 98 | 1.6 | 1.6 | 0.00 | 0.00 | 0.00 | 72 | 1018.7 |
| 20260502041402 | 0 | 14 | 0.0 | 1.6 | 0.00 | 0.00 | 0.00 | 70 | 1018.7 |
| 20260502040903 | 0 | 12 | 1.6 | 1.6 | 0.00 | 0.00 | 0.00 | 70 | 1018.7 |
| 20260502040405 | 0 | 74 | 0.0 | 1.6 | 0.00 | 0.00 | 0.00 | 67 | 1018.8 |
| 20260502035904 | 1 | 90 | 0.0 | 0.0 | 0.00 | 0.00 | 0.00 | 69 | 1018.9 |
| 20260502035402 | 1 | 90 | 0.0 | 3.2 | 0.00 | 0.00 | 0.00 | 66 | 1018.8 |
| 20260502034902 | 1 | 90 | 0.0 | 3.2 | 0.00 | 0.00 | 0.00 | 68 | 1018.8 |
| 20260502034404 | 1 | 66 | 0.0 | 1.6 | 0.00 | 0.00 | 0.00 | 68 | 1019.1 |
| 20260502033905 | 1 | 74 | 0.0 | 1.6 | 0.00 | 0.00 | 0.00 | 66 | 1019.1 |
| 20260502033403 | 1 | 15 | 0.0 | 1.6 | 0.00 | 0.00 | 0.00 | 65 | 1019.0 |
| 20260502032405 | 1 | 74 | 0.0 | 1.6 | 0.00 | 0.00 | 0.00 | 65 | 1018.8 |
| 20260502031400 | 2 | 90 | 0.0 | 1.6 | 0.00 | 0.00 | 0.00 | 63 | 1018.9 |
| 20260502030902 | 2 | 0 | 0.0 | 3.2 | 0.00 | 0.00 | 0.00 | 63 | 1018.9 |
| 20260502030401 | 2 | 151 | 0.0 | 3.2 | 0.00 | 0.00 | 0.00 | 62 | 1019.1 |
| 20260502025900 | 2 | 246 | 1.6 | 3.2 | 0.00 | 0.00 | 0.00 | 60 | 1018.9 |
| 20260502025403 | 2 | 0 | 0.0 | 0.0 | 0.00 | 0.00 | 0.00 | 61 | 1019.0 |
| 20260502024901 | 2 | 0 | 0.0 | 1.6 | 0.00 | 0.00 | 0.00 | 62 | 1018.8 |
| 20260502024402 | 3 | 0 | 0.0 | 1.6 | 0.00 | 0.00 | 0.00 | 61 | 1019.2 |
| 20260502023404 | 3 | 0 | 0.0 | 0.0 | 0.00 | 0.00 | 0.00 | 60 | 1019.1 |
| 20260502022904 | 3 | 0 | 0.0 | 1.6 | 0.00 | 0.00 | 0.00 | 58 | 1019.1 |
| 20260502022402 | 3 | 0 | 0.0 | 1.6 | 0.00 | 0.00 | 0.00 | 56 | 1019.0 |
| 20260502021903 | 3 | 0 | 0.0 | 1.6 | 0.00 | 0.00 | 0.00 | 57 | 1019.0 |
| 20260502021404 | 4 | 7 | 0.0 | 1.6 | 0.00 | 0.00 | 0.00 | 56 | 1018.9 |
| 20260502020901 | 4 | 7 | 0.0 | 1.6 | 0.00 | 0.00 | 0.00 | 56 | 1019.0 |
| 20260502020402 | 4 | 5 | 1.6 | 1.6 | 0.00 | 0.00 | 0.00 | 56 | 1019.1 |
| 20260502015901 | 5 | 15 | 0.0 | 0.0 | 0.00 | 0.00 | 0.00 | 55 | 1018.8 |
| 20260502014902 | 5 | 77 | 0.0 | 3.2 | 0.00 | 0.00 | 0.00 | 53 | 1018.7 |
| 20260502014400 | 5 | 165 | 0.0 | 0.0 | 0.00 | 0.00 | 0.00 | 51 | 1018.6 |
| 20260502013905 | 6 | 165 | 0.0 | 0.0 | 0.00 | 0.00 | 0.00 | 50 | 1018.8 |
| 20260502013405 | 6 | 165 | 0.0 | 0.0 | 0.00 | 0.00 | 0.00 | 48 | 1018.6 |
| 20260502012906 | 6 | 165 | 0.0 | 0.0 | 0.00 | 0.00 | 0.00 | 46 | 1018.6 |
| 20260502012403 | 7 | 165 | 0.0 | 0.0 | 0.00 | 0.00 | 0.00 | 46 | 1018.6 |
| 20260502011904 | 7 | 165 | 0.0 | 0.0 | 0.00 | 0.00 | 0.00 | 44 | 1018.8 |
| 20260502011403 | 7 | 165 | 0.0 | 0.0 | 0.00 | 0.00 | 0.00 | 43 | 1018.8 |
| 20260502010903 | 8 | 165 | 0.0 | 0.0 | 0.00 | 0.00 | 0.00 | 43 | 1018.4 |
| 20260502005905 | 9 | 81 | 0.0 | 3.2 | 0.00 | 0.00 | 0.00 | 41 | 1018.7 |
| 20260502005405 | 10 | 188 | 0.0 | 3.2 | 0.00 | 0.00 | 0.00 | 40 | 1018.7 |
| 20260502004904 | 10 | 188 | 0.0 | 3.2 | 0.00 | 0.00 | 0.00 | 39 | 1018.6 |
| 20260502003904 | 10 | 157 | 0.0 | 4.8 | 0.00 | 0.00 | 0.00 | 37 | 1018.8 |
| 20260502003404 | 10 | 201 | 0.0 | 8.0 | 0.00 | 0.00 | 0.00 | 38 | 1018.8 |
| 20260502002403 | 10 | 154 | 0.0 | 4.8 | 0.00 | 0.00 | 0.00 | 37 | 1018.7 |
| 20260502001902 | 10 | 180 | 0.0 | 4.8 | 0.00 | 0.00 | 0.00 | 36 | 1018.7 |
| 20260502001404 | 11 | 237 | 4.8 | 4.8 | 0.00 | 0.00 | 0.00 | 35 | 1018.6 |
| 20260502000902 | 11 | 192 | 0.0 | 8.0 | 0.00 | 0.00 | 0.00 | 35 | 1018.4 |
| 20260502000403 | 11 | 154 | 1.6 | 8.0 | 0.00 | 0.00 | 0.00 | 36 | 1018.6 |
| 20260501235903 | 11 | 148 | 4.8 | 6.4 | 0.00 | 0.00 | 0.00 | 35 | 1018.4 |
| 20260501235403 | 11 | 286 | 1.6 | 6.4 | 0.00 | 0.00 | 0.00 | 36 | 1018.4 |
| 20260501234901 | 11 | 249 | 1.6 | 4.8 | 0.00 | 0.00 | 0.00 | 34 | 1018.6 |
| 20260501234402 | 12 | 176 | 3.2 | 4.8 | 0.00 | 0.00 | 0.00 | 33 | 1018.7 |
| 20260501233902 | 13 | 180 | 3.2 | 6.4 | 0.00 | 0.00 | 0.00 | 32 | 1018.8 |
| 20260501233402 | 12 | 106 | 1.6 | 6.4 | 0.00 | 0.00 | 0.00 | 33 | 1018.8 |
| 20260501232904 | 12 | 266 | 3.2 | 11.3 | 0.00 | 0.00 | 0.00 | 33 | 1018.7 |
| 20260501232404 | 12 | 60 | 6.4 | 11.3 | 0.00 | 0.00 | 0.00 | 34 | 1018.6 |
| 20260501231902 | 12 | 154 | 3.2 | 3.2 | 0.00 | 0.00 | 0.00 | 34 | 1018.3 |
| 20260501231402 | 12 | 186 | 0.0 | 3.2 | 0.00 | 0.00 | 0.00 | 33 | 1018.3 |
| 20260501230404 | 12 | 157 | 3.2 | 3.2 | 0.00 | 0.00 | 0.00 | 35 | 1018.8 |
| 20260501225903 | 10 | 180 | 0.0 | 3.2 | 0.00 | 0.00 | 0.00 | 35 | 1018.7 |
| 20260501225406 | 10 | 161 | 0.0 | 6.4 | 0.00 | 0.00 | 0.00 | 36 | 1018.8 |
| 20260501224904 | 10 | 254 | 0.0 | 6.4 | 0.00 | 0.00 | 0.00 | 36 | 1018.7 |
| 20260501224405 | 11 | 349 | 1.6 | 9.7 | 0.00 | 0.00 | 0.00 | 34 | 1018.8 |
| 20260501223905 | 12 | 128 | 4.8 | 9.7 | 0.00 | 0.00 | 0.00 | 33 | 1018.7 |
| 20260501223403 | 12 | 231 | 8.0 | 9.7 | 0.00 | 0.00 | 0.00 | 33 | 1018.7 |
| 20260501222903 | 12 | 195 | 4.8 | 9.7 | 0.00 | 0.00 | 0.00 | 34 | 1019.0 |
| 20260501222403 | 12 | 154 | 0.0 | 8.0 | 0.00 | 0.00 | 0.00 | 32 | 1018.7 |
| 20260501221903 | 11 | 165 | 0.0 | 8.0 | 0.00 | 0.00 | 0.00 | 33 | 1018.7 |
| 20260501221403 | 11 | 165 | 0.0 | 6.4 | 0.00 | 0.00 | 0.00 | 33 | 1018.9 |
| 20260501220903 | 11 | 270 | 1.6 | 11.3 | 0.00 | 0.00 | 0.00 | 33 | 1018.9 |
| 20260501220402 | 12 | 225 | 6.4 | 11.3 | 0.00 | 0.00 | 0.00 | 32 | 1018.7 |
| 20260501215404 | 11 | 190 | 8.0 | 14.5 | 0.00 | 0.00 | 0.00 | 33 | 1018.7 |
| 20260501214902 | 12 | 180 | 3.2 | 9.7 | 0.00 | 0.00 | 0.00 | 33 | 1019.0 |
| 20260501214400 | 12 | 186 | 3.2 | 11.3 | 0.00 | 0.00 | 0.00 | 32 | 1018.9 |
| 20260501213900 | 12 | 167 | 6.4 | 11.3 | 0.00 | 0.00 | 0.00 | 31 | 1019.1 |
| 20260501213402 | 12 | 201 | 4.8 | 9.7 | 0.00 | 0.00 | 0.00 | 32 | 1019.1 |
| 20260501212903 | 12 | 162 | 6.4 | 14.5 | 0.00 | 0.00 | 0.00 | 32 | 1019.2 |
| 20260501212403 | 12 | 337 | 3.2 | 14.5 | 0.00 | 0.00 | 0.00 | 35 | 1018.9 |
| 20260501211902 | 13 | 212 | 3.2 | 11.3 | 0.00 | 0.00 | 0.00 | 33 | 1019.2 |
| 20260501210901 | 12 | 221 | 3.2 | 9.7 | 0.00 | 0.00 | 0.00 | 31 | 1019.3 |
| 20260501205902 | 12 | 200 | 1.6 | 9.7 | 0.00 | 0.00 | 0.00 | 32 | 1019.3 |
| 20260501205404 | 12 | 138 | 4.8 | 9.7 | 0.00 | 0.00 | 0.00 | 31 | 1019.2 |
| 20260501204402 | 12 | 164 | 4.8 | 11.3 | 0.00 | 0.00 | 0.00 | 32 | 1019.3 |
| 20260501203904 | 11 | 189 | 3.2 | 11.3 | 0.00 | 0.00 | 0.00 | 31 | 1019.5 |
| 20260501202404 | 11 | 74 | 4.8 | 9.7 | 0.00 | 0.00 | 0.00 | 32 | 1019.4 |
| 20260501201405 | 11 | 154 | 3.2 | 12.9 | 0.00 | 0.00 | 0.00 | 31 | 1019.6 |
| 20260501200904 | 11 | 234 | 0.0 | 12.9 | 0.00 | 0.00 | 0.00 | 31 | 1019.7 |
| 20260501200403 | 12 | 133 | 4.8 | 14.5 | 0.00 | 0.00 | 0.00 | 32 | 1019.8 |
| 20260501195906 | 12 | 94 | 8.0 | 14.5 | 0.00 | 0.00 | 0.00 | 31 | 1019.5 |
| 20260501195405 | 11 | 228 | 3.2 | 11.3 | 0.00 | 0.00 | 0.00 | 34 | 1019.7 |
| 20260501194905 | 11 | 93 | 4.8 | 12.9 | 0.00 | 0.00 | 0.00 | 33 | 1019.8 |
| 20260501194404 | 11 | 297 | 8.0 | 12.9 | 0.00 | 0.00 | 0.00 | 33 | 1019.7 |
| 20260501193904 | 11 | 196 | 4.8 | 9.7 | 0.00 | 0.00 | 0.00 | 32 | 1019.6 |
| 20260501193400 | 11 | 100 | 6.4 | 9.7 | 0.00 | 0.00 | 0.00 | 32 | 1019.8 |
| 20260501192900 | 11 | 150 | 4.8 | 8.0 | 0.00 | 0.00 | 0.00 | 32 | 1019.9 |
| 20260501192358 | 11 | 146 | 6.4 | 8.0 | 0.00 | 0.00 | 0.00 | 31 | 1019.5 |
| 20260501191343 | 10 | 229 | 3.2 | 11.3 | 0.00 | 0.00 | 0.00 | 34 | 1019.8 |
| 20260501190842 | 11 | 152 | 4.8 | 11.3 | 0.00 | 0.00 | 0.00 | 33 | 1019.8 |
| 20260501190336 | 10 | 299 | 3.2 | 14.5 | 0.00 | 0.00 | 0.00 | 34 | 1019.7 |
| 20260501185331 | 11 | 233 | 3.2 | 14.5 | 0.00 | 0.00 | 0.00 | 34 | 1019.9 |
| 20260501184830 | 11 | 180 | 3.2 | 11.3 | 0.00 | 0.00 | 0.00 | 36 | 1019.6 |
| 20260501184332 | 11 | 163 | 6.4 | 11.3 | 0.00 | 0.00 | 0.00 | 35 | 1020.0 |
| 20260501183331 | 11 | 225 | 3.2 | 12.9 | 0.00 | 0.00 | 0.00 | 34 | 1020.0 |
| 20260501182830 | 11 | 139 | 3.2 | 12.9 | 0.00 | 0.00 | 0.00 | 35 | 1020.1 |
| 20260501182334 | 10 | 258 | 6.4 | 9.7 | 0.00 | 0.00 | 0.00 | 33 | 1020.1 |
| 20260501181832 | 10 | 180 | 3.2 | 8.0 | 0.00 | 0.00 | 0.00 | 34 | 1020.0 |
| 20260501180833 | 10 | 160 | 4.8 | 9.7 | 0.00 | 0.00 | 0.00 | 36 | 1020.1 |
| 20260501180330 | 10 | 301 | 3.2 | 9.7 | 0.00 | 0.00 | 0.00 | 34 | 1020.5 |